Hourly Data Report for October 19, 2015

All times are specified in Local Standard Time (LST). Add 1 hour to adjust for Daylight Saving Time where and when it is observed.

KUGAARUK CLIMATE
NUNAVUT

68°32'15.060" N
89°47'47.020" W
15.80 m
2303094
71407
NBB

Download Data

Hourly Data (October 2015)
Hourly Data Report for October 19, 2015
Temp Definition
°C
Dew Point Temp Definition
°C
Rel Hum Definition
%
Wind Dir Definition
10's deg

Wind Spd Definition
km/h
Visibility Definition
km
Stn Press Definition
kPa
Hmdx Definition


Wind Chill Definition


Weather Definition


TIME
00:00 -15.9 -17.9 85 6 7   100.77   -21 LegendNANA
01:00 -13.0 -14.2 91 7 4   100.82   -16 LegendNANA
02:00 -15.5 -17.4 85 6 9   100.83   -21 LegendNANA
03:00 -14.7 -16.3 88 9 4   100.86   -18 LegendNANA
04:00 -15.3 -16.9 87 6 2   100.90   -17 LegendNANA
05:00 -15.2 -17.0 87 12 2   100.95   -17 LegendNANA
06:00 -18.8 -20.8 84 5 6   100.98   -24 LegendNANA
07:00 -20.7 -22.7 84 10 3   101.02   -23 LegendNANA
08:00 -21.6 -23.8 83 5 6   101.09   -27 LegendNANA
09:00 -18.8 -20.6 85 8 5   101.13   -23 LegendNANA
10:00 -16.5 -18.2 87 5 2   101.13   -18 LegendNANA
11:00 -11.5 -12.8 90 11 2   101.19   -13 LegendNANA
12:00 -9.8 -11.5 88 2 11   101.23   -15 LegendNANA
13:00 -10.0 -13.7 75 6 21   101.28   -18 LegendNANA
14:00 -12.2 -14.7 82 4 12   101.39   -19 LegendNANA
15:00 -11.0 -13.3 84 10 5   101.44   -14 LegendNANA
16:00 -10.2 -12.6 82 11 2   101.47   -11 LegendNANA
17:00 -9.0 -11.7 81 32 2   101.49   -10 LegendNANA
18:00 -9.1 -11.9 80 4 8   101.51   -13 LegendNANA
19:00 -8.7 -12.1 76 36 14   101.52   -15 LegendNANA
20:00 -11.8 -14.2 82 1 7   101.55   -16 LegendNANA
21:00 -12.7 -14.9 84 1 2   101.58   -14 LegendNANA
22:00 -11.7 -13.0 90 33 17   101.58   -19 LegendNANA
23:00 -10.4 -13.1 81 32 19   101.59   -18 LegendNANA

Notes on Data Quality.

Legend

  • E = Estimated
  • M = Missing
  • NA = Not Available
  • ‡ = Partner data that is not subject to review by the National Climate Archives
Date modified: